Regional Weather Roundup
Issued by NWS

Home | Current Version | Previous Version | Text Only | Print | Product List | Glossary Off
Versions: 1 2 3 4 5 6 7 8 9 10 11 12 13 14 15 16 17 18 19 20 21 22 23 24 25 26 27 28 29 30 31 32 33 34 35 36 37 38 39 40 41 42 43 44 45 46 47 48 49 50

000
ASUS43 KFSD 020502
RWRSD

WEATHER ROUNDUP FOR SOUTH DAKOTA
NATIONAL WEATHER SERVICE SIOUX FALLS SD
1200 AM CDT SAT AUG 02 2014

NOTE: "FAIR" INDICATES FEW OR NO CLOUDS BELOW 12,000 FEET WITH NO
SIGNIFICANT WEATHER AND/OR OBSTRUCTIONS TO VISIBILITY.


SDZ001>005-009-010-012>017-020600-
NORTHWEST AND NORTH CENTRAL SOUTH DAKOTA

CITY           SKY/WX    TMP DP  RH WIND       PRES   REMARKS
BUFFALO          N/A     68  59  73 NE16      30.04R
FAITH            N/A     67  55  65 SE12      30.05R
MOBRIDGE       TSTM      68  62  81 SW18G31   30.11R
$$

SDZ012>016-024>037-041>051-057-063-072>074-020600-
SOUTHWEST AND SOUTH CENTRAL SOUTH DAKOTA

CITY           SKY/WX    TMP DP  RH WIND       PRES   REMARKS
RAPID CTY ARPT CLEAR     70  48  45 W5        30.07F
PIERRE         MOCLDY    70  59  68 SE7       30.03R
CUSTER         CLEAR     59  44  57 NW5       30.25F
ELLSWORTH AFB  CLEAR     69  51  51 W7        30.07S
PHILIP         CLEAR     68  54  60 E8        30.05R
PINE RIDGE     PTCLDY    61  53  75 E5        30.10S
WINNER         FAIR      69  59  70 SE10      30.09F
$$

SDZ004>011-016>023-039-040-020600-
NORTHEAST SOUTH DAKOTA

CITY           SKY/WX    TMP DP  RH WIND       PRES   REMARKS
ABERDEEN       PTCLDY    64  59  83 SE5       30.08R
WATERTOWN      CLEAR     66  59  78 SE5       30.11R
SISSETON         N/A     64  63  96 W3        30.08R
$$

SDZ017-020-022-023-036>040-048>070-020600-
SOUTHEAST SOUTH DAKOTA

CITY           SKY/WX    TMP DP  RH WIND       PRES   REMARKS
SIOUX FALLS    PTCLDY    64  58  80 CALM      30.12S
HURON          CLOUDY    70  58  65 SW10      30.10R
CHAMBERLAIN    DRIZZLE   65  63  91 SE9       30.09F
MITCHELL       CLOUDY    71  59  65 W10       30.13R
YANKTON        MOCLDY    64  61  88 E3        30.11S
$$

ABBREVIATIONS USED IN REMARKS
   TC - TEMPERATURE IN CELSIUS
  WCI - WIND CHILL INDEX
   HX - HEAT INDEX
  VSB - VISIBILITY



USA.gov is the U.S. government's official web portal to all federal, state and local government web resources and services.